Regional Weather Roundup
Issued by NWS Goodland, KS

Home | Current Version | Previous Version | Graphics & Text | Print | Product List | Glossary On
Versions: 1 2 3 4 5 6 7 8 9 10 11 12 13 14 15 16 17 18 19 20 21 22 23 24 25 26 27 28 29 30 31 32 33 34 35 36 37 38 39 40 41 42 43 44 45 46 47 48 49 50
661
ASUS43 KGLD 061808
RWRGLD

GOODLAND FORECAST AREA HOURLY WEATHER ROUNDUP
NATIONAL WEATHER SERVICE GOODLAND KS
1100 AM MST SAT FEB 06 2016

...OFFICIAL OBSERVATIONS...

CITY           SKY/WX    TMP DP  RH WIND       PRES   REMARKS
GOODLAND KS    CLOUDY    40  20  44 SW13      30.21F
HILL CITY KS   SUNNY     35  22  58 SW9       30.26F
IMPERIAL NEB   CLOUDY    31  17  56 W10       30.18F
MCCOOK NEB     SUNNY     28  16  60 W12       30.22F WCI  18
AKRON CO       CLOUDY    30  13  49 SW10      30.19S
BURLINGTON CO  CLOUDY    35  18  49 SW15      30.22F
LIMON CO       CLOUDY    28  12  51 NE9       30.22F
$$

...UNOFFICIAL OBSERVATIONS...

CITY           SKY/WX    TMP DP  RH WIND       PRES   REMARKS
COLBY KS       SUNNY     36  27  69 SW10      30.23F
GOVE KS          N/A     38  32  79 MISG        N/A
LENORA KS        N/A     32  32 100 MISG        N/A
NORTON KS      SUNNY     30  16  55 SW7       30.22F
SHARON SPRINGS   N/A     39  26  60 SW12        N/A
KIT CARSON CO    N/A     31  19  60 MISG        N/A
YUMA CO          N/A     35  22  58 W7          N/A
$$




USA.gov is the U.S. government's official web portal to all federal, state and local government web resources and services.